Location: Unspecified
(0.0000°N, 0.0000°E)
Time: 00:46:38
(UTC+02:00)

ATLAS V CENTAUR R/B - Visible Passes

Search period start: 25 September 2017 00:00
Search period end: 05 October 2017 00:00
Orbit: 248 x 27864 km, 18.2° (Epoch: 22 September)

Date Brightness Start Highest point End Pass type
(mag) Time Alt. Az. Time Alt. Az. Time Alt. Az.
30 Sep 8.0 12:54:35 10° WNW 16:59:30 66° SSE 20:13:09 10° ESE visible
01 Oct 8.1 13:08:37 10° WNW 13:44:10 87° SSW 20:27:55 10° ESE visible
02 Oct 8.0 13:22:39 10° WNW 14:04:34 84° SSW 20:41:54 12° E visible
03 Oct 7.9 13:36:42 10° WNW 14:26:42 81° SSW 20:55:00 16° ESE visible
04 Oct 7.7 13:50:46 10° WNW 20:11:21 66° S 21:08:00 20° ESE visible
